Terminal Aerodrome Forecast
Issued by NWS Tampa Bay Area, FL

Home | Current Version | Previous Version | Text Only | Print | Product List | Glossary On
Versions: 1 2 3 4 5 6 7 8 9 10 11 12
000
FTUS42 KTBW 211700
TAFSRQ
TAF
KSRQ 211737Z 2118/2218 28008KT P6SM VCTS SCT040CB SCT100
     FM212000 30009KT P6SM VCTS SCT040CB SCT100 BKN250
     FM220100 VRB04KT P6SM FEW040 SCT130 BKN250
     FM220400 VRB03KT P6SM SCT250
     FM221500 VRB06KT P6SM SCT250=

USA.gov is the U.S. government's official web portal to all federal, state and local government web resources and services.